STARLINK-5222 (54068 NORAD) Tracking and Keplerian Element Data

This shows tracking and keplerian element data for the satellite.

Feedback or suggestion? Click here.




ElementValue
Catalog54068
NameSTARLINK-5222
Epoch Orbit548
Epoch Day325.33334491
Epoch Year2022
RAAN352.6441
Inclination53.2171
Eccentricity0.0001495
Argument of Perigee111.5024
Mean Anonmoly83.3351
Mean Motion15.48528832
Decay Rate-0.01186491
L11 54068U 22136T 22325.33334491 -.01186491 00000+0 -24041-1 0 9994
L22 54068 53.2171 352.6441 0001495 111.5024 83.3351 15.48528832 5488



Live tracking and technical data element details for STARLINK-5222 (NORAD 54068). STARLINK-5222 can be tracked NOW for your location showing map with azimuth and elevation plus other details from your city location.







IsCatalogInMostPopularTable: catalog: 54068, numindb: 1
Update: records affected: 1



GetName: 54068 STARLINK-5222

Hit Count: updated at: Fri, 09 Dec 2022 19:44:21 GMT